Weather History for Saranac Lake, NY

Change the Weather History Date:

Wednesday, February 5, 2014

  Actual Average Record
Temperature  
Mean Temperature 12 °F 13 °F  
Max Temperature 16 °F 26 °F 50 °F (1991)
Min Temperature 7 °F 1 °F -25 °F (1978)
Degree Days  
Heating Degree Days 53 52  
Month to date heating degree days 234 260  
Since 1 July heating degree days 5740 5562  
Moisture  
Dew Point 11 °F    
Average Humidity 84    
Maximum Humidity 88    
Minimum Humidity 80    
Precipitation  
Precipitation 0.27 in 0.06 in 0.53 in (2011)
Month to date precipitation 0.33 0.29  
Year to date precipitation 1.88 2.42  
Sea Level Pressure  
Sea Level Pressure 29.92 in    
Wind  
Wind Speed 7 mph (NE)    
Max Wind Speed 17 mph    
Max Gust Speed 21 mph    
Visibility 2 miles    
Events Fog , Snow    
T = Trace of Precipitation, MM = Missing Value Source: NWS Daily Summary

Daily Weather History Graph

Daily Weather History Graph

Search for Another Location

Airport:

Trip Planner

Search our weather history database for the weather conditions in past years. The results will help you decide how hot, cold, wet, or windy it might be!

Date:

Astronomy

Feb. 05, 2014 Rise Set
Actual Time 7:10 AM EST 5:11 PM EST
Civil Twilight 6:39 AM EST 5:42 PM EST
Nautical Twilight 6:05 AM EST 6:17 PM EST
Astronomical Twilight 5:31 AM EST 6:50 PM EST
Moon 10:07 AM EST (2/5) No Moon Set
Length of Visible Light 11h 02m
Length of Day
10h 01m
Waxing Crescent, 39% of the Moon is Illuminated
Feb 5
Waxing Crescent
Feb 6
First Quarter
Feb 14
Full
Feb 22
Last Quarter
Mar 1
New

Hourly Weather History & Observations

Time (EST) Temp. Windchill Dew Point Humidity Pressure Visibility Wind Dir Wind Speed Gust Speed Precip Events Conditions
12:51 AM 15.1 °F 7.7 °F 10.9 °F 84% 30.25 in 10.0 mi NNE 4.6 mph - N/A   Overcast
1:13 AM 15.1 °F - 12.0 °F 88% 30.15 in 2.5 mi Calm Calm - 0.00 in Snow Light Snow
1:23 AM 15.1 °F - 12.0 °F 88% 30.16 in 1.5 mi Calm Calm - 0.00 in Snow Light Snow
1:51 AM 16.0 °F - 12.0 °F 84% 30.26 in 1.0 mi Calm Calm - 0.00 in Snow Light Snow
2:02 AM 15.1 °F - 12.9 °F 91% 30.17 in 0.8 mi Calm Calm - 0.01 in Snow Light Snow
2:36 AM 15.1 °F 6.4 °F 12.0 °F 88% 30.13 in 1.0 mi NNE 5.8 mph - 0.03 in Snow Light Snow
2:51 AM 15.1 °F 6.4 °F 12.0 °F 88% 30.22 in 1.8 mi NE 5.8 mph - 0.03 in Snow Light Snow
3:01 AM 15.1 °F 6.4 °F 12.0 °F 88% 30.12 in 2.0 mi NE 5.8 mph - 0.00 in Snow Light Snow
3:09 AM 15.1 °F 6.4 °F 12.0 °F 88% 30.12 in 1.5 mi NE 5.8 mph - 0.00 in Snow Light Snow
3:51 AM 15.1 °F 5.2 °F 12.0 °F 88% 30.17 in 1.0 mi NE 6.9 mph - 0.01 in Snow Light Snow
3:59 AM 15.1 °F 6.4 °F 12.0 °F 88% 30.08 in 0.8 mi NE 5.8 mph - 0.00 in Snow Light Snow
4:09 AM 15.1 °F 7.7 °F 12.0 °F 88% 30.08 in 1.0 mi NE 4.6 mph - 0.01 in Snow Light Snow
4:51 AM 15.1 °F 7.7 °F 12.0 °F 88% 30.16 in 1.0 mi ENE 4.6 mph - 0.03 in Snow Light Snow
4:53 AM 14.0 °F 5.1 °F 12.0 °F 92% 30.07 in 0.8 mi ENE 5.8 mph - 0.00 in Snow Light Snow
5:51 AM 14.0 °F 2.0 °F 10.9 °F 88% 30.14 in 0.8 mi ENE 9.2 mph - 0.04 in Snow Light Snow
6:38 AM 14.0 °F 3.9 °F 10.9 °F 88% 30.03 in 1.0 mi NE 6.9 mph - 0.02 in Snow Light Snow
6:51 AM 14.0 °F 3.9 °F 10.9 °F 88% 30.13 in 1.0 mi NE 6.9 mph - 0.02 in Snow Light Snow
7:33 AM 14.0 °F 5.1 °F 10.9 °F 88% 30.00 in 0.8 mi ENE 5.8 mph - 0.02 in Snow Light Snow
7:40 AM 14.0 °F 5.1 °F 10.9 °F 88% 30.00 in 0.5 mi ENE 5.8 mph - 0.02 in Fog , Snow Snow
7:51 AM 14.0 °F 5.1 °F 10.9 °F 88% 30.10 in 0.8 mi ENE 5.8 mph - 0.02 in Snow Light Snow
8:05 AM 14.0 °F 5.1 °F 10.9 °F 88% 29.98 in 0.5 mi ENE 5.8 mph - 0.01 in Fog , Snow Snow
8:16 AM 14.0 °F 3.9 °F 10.9 °F 88% 29.98 in 0.5 mi ENE 6.9 mph - 0.01 in Fog , Snow Light Snow
8:29 AM 14.0 °F 2.9 °F 10.9 °F 88% 29.96 in 1.0 mi ENE 8.1 mph - 0.01 in Snow Light Snow
8:39 AM 14.0 °F 2.9 °F 10.9 °F 88% 29.95 in 0.8 mi ENE 8.1 mph - 0.01 in Snow Light Snow
8:51 AM 15.1 °F 3.3 °F 10.9 °F 84% 30.05 in 0.8 mi ENE 9.2 mph - 0.01 in Snow Light Snow
9:27 AM 15.1 °F 2.5 °F 10.9 °F 84% 29.90 in 1.2 mi ENE 10.4 mph - 0.00 in Snow Light Snow
9:43 AM 15.1 °F 1.8 °F 10.9 °F 84% 29.91 in 3.0 mi ENE 11.5 mph - 0.00 in Snow Light Snow
9:51 AM 15.1 °F 2.5 °F 10.9 °F 84% 29.99 in 4.0 mi ENE 10.4 mph - 0.00 in Snow Light Snow
10:26 AM 16.0 °F 3.6 °F 12.0 °F 84% 29.87 in 2.0 mi ENE 10.4 mph - 0.00 in Snow Light Snow
10:47 AM 15.8 °F 1.4 °F 12.2 °F 86% 29.84 in 1.5 mi ENE 13.8 mph - 0.01 in Snow Light Snow
10:51 AM 16.0 °F 2.9 °F 12.0 °F 84% 29.93 in 1.5 mi ENE 11.5 mph - 0.01 in Snow Light Snow
11:05 AM 16.0 °F 3.6 °F 12.0 °F 84% 29.82 in 0.5 mi NE 10.4 mph - 0.00 in Fog , Snow Snow
11:51 AM 16.0 °F 1.7 °F 12.9 °F 88% 29.85 in 1.2 mi ENE 13.8 mph - 0.00 in Snow Light Snow
12:04 PM 16.0 °F 2.9 °F 12.9 °F 88% 29.74 in 1.8 mi NE 11.5 mph - 0.00 in Snow Light Snow
12:11 PM 16.0 °F 2.3 °F 12.0 °F 84% 29.73 in 2.0 mi NE 12.7 mph - 0.00 in Snow Light Snow
12:20 PM 16.0 °F 2.3 °F 12.0 °F 84% 29.73 in 1.2 mi NE 12.7 mph - 0.00 in Snow Light Snow
12:33 PM 16.0 °F 3.6 °F 12.9 °F 88% 29.72 in 1.0 mi NE 10.4 mph - 0.00 in Snow Light Snow
12:44 PM 16.0 °F 0.6 °F 12.9 °F 88% 29.70 in 0.5 mi NE 16.1 mph - 0.00 in Fog , Snow Snow
12:48 PM 15.8 °F 2.1 °F 12.2 °F 86% 29.71 in 0.2 mi NE 12.7 mph - 0.00 in Fog , Snow Snow
12:51 PM 16.0 °F 4.4 °F 12.9 °F 88% 29.81 in 0.2 mi NE 9.2 mph - 0.00 in Fog , Snow Snow
1:10 PM 16.0 °F 4.4 °F 12.9 °F 88% 29.72 in 0.5 mi NE 9.2 mph - 0.01 in Fog , Snow Light Snow
1:35 PM 16.0 °F 4.4 °F 12.9 °F 88% 29.73 in 0.2 mi NE 9.2 mph - 0.01 in Fog , Snow Snow
1:51 PM 16.0 °F 3.6 °F 12.9 °F 88% 29.82 in 0.2 mi NE 10.4 mph - 0.02 in Fog , Snow Heavy Snow
2:39 PM 16.0 °F 2.9 °F 12.9 °F 88% 29.69 in 0.5 mi NE 11.5 mph - 0.03 in Fog , Snow Snow
2:51 PM 16.0 °F 5.3 °F 12.9 °F 88% 29.78 in 0.5 mi ENE 8.1 mph - 0.04 in Fog , Snow Snow
3:10 PM 16.0 °F 4.4 °F 12.9 °F 88% 29.70 in 0.5 mi ENE 9.2 mph - 0.00 in Fog , Snow Light Snow
3:44 PM 16.0 °F 5.3 °F 12.9 °F 88% 29.69 in 0.2 mi ENE 8.1 mph - 0.01 in Fog , Snow Snow
3:51 PM 16.0 °F 4.4 °F 12.9 °F 88% 29.78 in 0.2 mi ENE 9.2 mph - 0.01 in Fog , Snow Snow
4:26 PM 16.0 °F 3.6 °F 12.9 °F 88% 29.70 in 0.5 mi NE 10.4 mph - 0.01 in Fog , Snow Snow
4:46 PM 15.8 °F 4.2 °F 12.2 °F 86% 29.73 in 0.2 mi NE 9.2 mph - 0.02 in Fog , Snow Snow
4:51 PM 16.0 °F 6.3 °F 12.9 °F 88% 29.81 in 0.2 mi NE 6.9 mph - 0.02 in Fog , Snow Snow
5:02 PM 16.0 °F 5.3 °F 12.9 °F 88% 29.73 in 0.5 mi NNE 8.1 mph - 0.00 in Fog , Snow Light Snow
5:13 PM 15.1 °F 3.3 °F 12.0 °F 88% 29.74 in 1.0 mi NNE 9.2 mph - 0.00 in Snow Light Snow
5:47 PM 14.0 °F 3.9 °F 10.4 °F 86% 29.75 in 1.0 mi NNE 6.9 mph - 0.01 in Snow Light Snow
5:51 PM 14.0 °F 5.1 °F 10.9 °F 88% 29.85 in 1.0 mi North 5.8 mph - 0.01 in Snow Light Snow
6:03 PM 12.9 °F -0.2 °F 10.0 °F 88% 29.76 in 1.0 mi NE 10.4 mph - 0.00 in Snow Light Snow
6:51 PM 12.0 °F 0.5 °F 9.0 °F 88% 29.87 in 1.5 mi NE 8.1 mph - 0.00 in Snow Light Snow
7:04 PM 12.0 °F -1.3 °F 9.0 °F 88% 29.78 in 2.0 mi NNE 10.4 mph - 0.00 in Snow Light Snow
7:51 PM 10.9 °F 2.9 °F 7.0 °F 84% 29.91 in 1.8 mi NNE 4.6 mph - 0.00 in Snow Light Snow
8:14 PM 10.9 °F 1.4 °F 7.0 °F 84% 29.83 in 1.0 mi North 5.8 mph - 0.00 in Snow Light Snow
8:34 PM 10.0 °F 3.6 °F 7.0 °F 87% 29.85 in 1.8 mi North 3.5 mph - 0.00 in Snow Light Snow
8:46 PM 10.4 °F 2.2 °F 6.8 °F 85% 29.86 in 2.0 mi NNW 4.6 mph - 0.00 in Snow Light Snow
8:51 PM 10.0 °F 1.8 °F 6.1 °F 84% 29.96 in 2.0 mi NNW 4.6 mph - 0.00 in Snow Light Snow
9:14 PM 9.0 °F 2.4 °F 5.0 °F 84% 29.87 in 2.5 mi North 3.5 mph - 0.00 in Snow Light Snow
9:38 PM 9.0 °F 2.4 °F 5.0 °F 84% 29.89 in 3.0 mi North 3.5 mph - 0.00 in Snow Light Snow
9:51 PM 8.1 °F -0.5 °F 3.9 °F 83% 30.00 in 6.0 mi North 4.6 mph - 0.00 in   Overcast
10:38 PM 8.1 °F - 3.9 °F 83% 29.92 in 4.0 mi Calm Calm - N/A   Overcast
10:51 PM 8.1 °F 1.4 °F 3.9 °F 83% 30.03 in 2.5 mi Variable 3.5 mph - 0.00 in Snow Light Snow
11:05 PM 8.1 °F 1.4 °F 3.9 °F 83% 29.94 in 4.0 mi Variable 3.5 mph - 0.00 in   Overcast
11:18 PM 8.1 °F 1.4 °F 5.0 °F 87% 29.95 in 3.0 mi NNW 3.5 mph - 0.00 in Snow Light Snow
11:42 PM 8.1 °F 1.4 °F 3.9 °F 83% 29.97 in 2.0 mi Variable 3.5 mph - 0.00 in Snow Light Snow
11:51 PM 8.1 °F -2.0 °F 3.9 °F 83% 30.07 in 3.0 mi Variable 5.8 mph - 0.00 in Snow Light Snow